Main page
METAR-TAF:

METAR-TAF

Airports :

Topcliffe, England

RAF Topcliffe

latitude: 54-12N, longitude: 001-23W, elevation: 28 m

Current weather observation

The report was made 32 minutes ago, at 01:50 UTC
Wind 2 kt from the South/Southeast
Temperature -6°C
Humidity 93%
Pressure 1022 hPa
Visibility: 6000 m

METAR: EGXZ 170150Z AUTO 15002KT 6000 FEW002/// SCT200/// M06/M07 Q1022

Time: 02:22 (02:22 UTC)


TAF: missing

Weather observations and forecasts of more than 4000 airports (METAR and TAF reports).

The available stations are represented by yellow and red dots on the map.

Hover mouse over dot to see the name of the station.

Then click to see weather observations and forecasts.

To change the map : click on the green buttons with a black cross to zoom in, on the green button with a dash to zoom out, or on the green arrows for adjacent maps.


METAR-TAF: